TimeMST,TemperatureF,Dew PointF,Humidity,Sea Level PressureIn,VisibilityMPH,Wind Direction,Wind SpeedMPH,Gust SpeedMPH,PrecipitationIn,Events,Conditions,WindDirDegrees,DateUTC
12:53 AM,26.1,17.1,69,29.85,10.0,SSW,4.6,-,N/A,,Clear,200,2012-02-20 07:53:00
1:53 AM,21.9,16.0,78,29.86,10.0,Calm,Calm,-,N/A,,Clear,0,2012-02-20 08:53:00
2:53 AM,19.0,15.1,85,29.86,10.0,West,5.8,-,N/A,,Clear,280,2012-02-20 09:53:00
3:53 AM,18.0,14.0,84,29.86,10.0,West,5.8,-,N/A,,Clear,280,2012-02-20 10:53:00
4:53 AM,19.9,16.0,85,29.87,10.0,WSW,5.8,-,N/A,,Clear,240,2012-02-20 11:53:00
5:53 AM,18.0,12.9,81,29.88,10.0,WSW,8.1,-,N/A,,Clear,240,2012-02-20 12:53:00
6:53 AM,19.9,15.1,81,29.89,10.0,WSW,3.5,-,N/A,,Clear,240,2012-02-20 13:53:00
7:53 AM,21.0,16.0,81,29.90,10.0,SW,6.9,-,N/A,,Clear,220,2012-02-20 14:53:00
8:53 AM,28.9,21.9,75,29.90,10.0,SSW,3.5,-,N/A,,Clear,200,2012-02-20 15:53:00
9:53 AM,35.1,19.9,54,29.88,10.0,SW,9.2,-,N/A,,Clear,230,2012-02-20 16:53:00
10:53 AM,39.0,16.0,39,29.87,10.0,West,10.4,-,N/A,,Clear,260,2012-02-20 17:53:00
11:53 AM,42.1,15.1,34,29.86,10.0,West,15.0,24.2,N/A,,Scattered Clouds,280,2012-02-20 18:53:00
12:53 PM,39.9,16.0,38,29.84,10.0,WNW,19.6,25.3,N/A,,Overcast,300,2012-02-20 19:53:00
1:53 PM,39.9,18.0,41,29.84,10.0,WNW,15.0,28.8,N/A,,Overcast,290,2012-02-20 20:53:00
2:53 PM,39.0,19.0,45,29.84,10.0,WNW,17.3,25.3,N/A,,Mostly Cloudy,290,2012-02-20 21:53:00
3:53 PM,37.0,23.0,57,29.85,10.0,WNW,18.4,-,0.00,,Mostly Cloudy,290,2012-02-20 22:53:00
4:53 PM,35.1,21.9,59,29.86,10.0,WNW,13.8,-,N/A,,Clear,300,2012-02-20 23:53:00
5:53 PM,30.9,21.9,69,29.88,10.0,WNW,8.1,-,N/A,,Clear,290,2012-02-21 00:53:00
6:53 PM,32.0,26.1,79,29.90,10.0,NW,11.5,-,N/A,,Mostly Cloudy,320,2012-02-21 01:53:00
7:53 PM,30.0,26.1,85,29.91,10.0,NW,6.9,-,0.00,,Scattered Clouds,310,2012-02-21 02:53:00
8:53 PM,26.1,24.1,92,29.91,10.0,WNW,5.8,-,N/A,,Mostly Cloudy,290,2012-02-21 03:53:00
9:53 PM,26.1,23.0,88,29.91,10.0,WNW,8.1,-,N/A,,Mostly Cloudy,290,2012-02-21 04:53:00
10:53 PM,24.1,21.9,91,29.90,10.0,West,6.9,-,N/A,,Mostly Cloudy,280,2012-02-21 05:53:00
11:53 PM,21.0,19.0,92,29.89,10.0,West,6.9,-,N/A,,Clear,280,2012-02-21 06:53:00